RH
71 71 78 60 43 48 47 51 50 62 71 75 80 82 84 87 88 91 82 68 64 61 68 69 66 66 70 74 77 76 72 58
53 50 42 39 41 44 50 62 70 76 81 84 87 86 81 83 90 86 74 59 56 70 70 68 66 67 72 76 67 62 59 57
29 37 44 44 46 54 64 69 73 80 85 90 89 82 81 86 88 75 69 54 64 68 66 66 67 70 74 76 73 64 71 60
29 31 38 44 48 52 57 63 68 74 72 73 78 76 79 85 89 74 60 59 65 61 63 68 76 74 71 75 78 73 76 81
35 35 36 40 46 53 58 63 64 66 64 67 76 82 85 96 89 63 62 62 61 62 68 79 89 90 88 79 75 71 70 71
38 38 38 45 51 52 53 57 61 65 64 67 74 80 88 96 95 65 58 57 61 65 79 84 93 97 90 98 97 97 64 79
47 49 51 57 60 70 74 77 79 84 74 68 75 80 91 98 78 60 54 56 65 73 83 94 99 96 99 99 99 78 77 97
46 50 53 55 55 61 71 74 68 71 73 73 73 82 94 96 74 55 55 64 72 80 84 90 99 96 99 99 90 92 69 85
44 49 52 54 59 66 71 73 69 66 76 80 90 89 97 92 71 64 62 70 75 73 79 89 100 100 92 100 69 87 83 90
34 39 48 55 64 65 81 68 71 85 97 69 69 81 80 76 81 74 80 69 72 75 88 100 100 98 81 73 70 93 89 88
36 40 49 58 67 75 79 67 77 100 76 56 60 69 71 79 72 66 74 82 86 96 84 99 97 75 80 86 89 88 84 82
19 29 39 53 67 69 75 74 69 54 44 50 59 65 69 66 71 87 88 84 91 99 92 99 93 82 99 86 90 83 81 76
23 18 13 14 41 58 56 65 56 57 55 52 56 50 53 79 90 89 89 92 99 81 93 92 84 97 93 93 85 82 78 59
30 25 24 24 17 23 43 52 60 70 77 78 84 85 94 99 94 99 86 96 75 92 78 95 95 96 94 86 87 77 69 34
33 33 28 28 30 40 50 62 68 73 93 93 93 98 100 99 94 99 77 98 98 88 96 84 99 91 90 90 81 83 50 12
29 35 37 33 44 60 63 79 78 77 77 78 86 93 100 99 98 80 88 99 83 69 90 96 94 92 88 85 71 30 11 10
32 30 42 44 50 65 69 74 71 73 82 89 88 99 99 99 87 100 99 77 84 99 96 92 94 82 50 24 12 10 10 11
32 31 38 50 51 58 62 65 71 78 80 76 88 75 98 80 77 99 80 96 97 96 88 88 57 30 15 11 11 11 12 13
32 33 43 49 45 48 54 62 80 84 77 60 95 100 100 98 99 85 98 95 98 88 77 45 27 15 12 12 12 13 15 16
Wind_Speed
17 17 18 17 21 21 19 18 20 20 19 16 14 10 9 8 8 7 8 9 10 11 12 12 12 13 14 17 21 24 26 27
17 18 18 20 21 21 19 18 17 15 14 11 9 7 7 6 7 11 9 10 12 13 14 14 15 16 19 22 24 25 28 30
17 20 21 19 18 18 17 16 14 13 12 11 10 9 7 8 9 9 9 12 14 15 15 16 16 19 24 27 27 25 31 28
14 15 17 18 16 15 13 13 13 12 11 13 13 9 10 8 10 11 12 15 16 16 16 16 17 21 23 24 27 29 36 31
16 15 14 13 14 15 16 18 17 15 15 13 13 12 12 14 14 14 13 15 15 16 16 16 19 24 31 29 26 30 32 32
18 15 15 14 15 16 16 17 19 19 18 15 15 15 14 17 18 15 13 15 16 18 19 21 30 31 30 29 33 40 33 37
17 18 19 17 18 17 17 19 20 20 21 17 16 17 17 18 17 16 15 17 17 20 23 29 31 32 33 34 31 44 45 37
21 21 20 20 19 18 18 16 15 15 16 18 16 18 20 19 19 18 17 19 22 24 26 29 36 35 35 33 42 41 42 41
22 21 21 17 16 17 15 11 13 14 13 15 18 20 20 20 21 20 21 23 24 27 31 31 35 36 37 33 42 37 40 38
17 17 17 18 21 14 15 15 15 16 16 16 19 21 21 21 20 20 24 21 23 25 26 34 44 34 43 44 40 42 42 42
13 14 16 14 13 17 18 16 15 17 19 19 19 22 21 21 20 18 19 20 26 25 24 34 30 38 44 41 42 42 42 37
8 13 14 15 17 18 17 16 15 18 17 18 20 22 22 17 20 18 22 26 34 34 26 31 42 36 40 43 42 42 38 33
8 9 10 15 19 20 19 17 15 11 10 9 11 15 19 21 21 23 17 27 28 28 32 35 33 37 41 42 41 37 33 34
12 12 10 9 14 16 19 18 17 18 18 17 17 21 23 28 21 36 23 18 29 29 36 34 39 41 40 41 36 32 34 37
16 16 14 13 13 14 17 18 21 23 25 25 20 27 30 32 16 26 28 33 28 35 33 38 38 40 41 36 33 34 37 38
14 19 20 17 14 17 19 21 22 22 23 24 26 32 35 26 14 28 28 29 39 39 41 36 41 40 36 33 34 36 38 39
19 19 22 20 18 20 21 22 22 22 22 23 23 29 24 18 28 32 28 39 40 37 39 41 38 34 33 33 35 38 40 42
24 23 23 22 22 22 22 22 24 24 22 20 16 23 24 29 31 29 43 33 34 43 42 38 34 32 33 35 38 42 44 46
18 19 20 23 24 21 22 25 24 24 21 18 19 23 25 30 31 39 31 38 39 40 36 33 33 33 36 39 42 45 47 49
Wind_Direction
150 154 158 152 146 146 149 151 155 160 156 162 167 171 178 193 210 236 243 257 264 287 294 288 298 304 307 305 303 301 301 306
161 163 160 157 164 164 166 168 169 170 172 176 179 186 198 210 230 244 246 260 272 288 285 290 299 305 305 305 300 304 306 306
162 165 167 168 169 172 174 175 176 180 190 199 208 219 229 240 245 252 259 263 274 282 286 292 300 307 303 297 294 301 315 309
171 172 175 179 178 181 186 194 201 206 210 219 225 235 236 255 253 243 254 263 278 283 286 288 296 298 300 302 298 296 309 310
197 189 187 187 189 194 201 206 210 220 231 233 232 235 245 259 259 252 257 269 274 281 287 283 295 296 291 292 299 319 314 313
208 207 197 193 203 212 219 224 232 234 240 240 243 238 247 258 257 251 261 272 279 289 287 291 286 286 301 283 298 305 321 315
215 212 209 208 211 218 222 227 233 239 240 242 249 245 249 264 249 257 265 271 282 282 281 277 293 296 301 289 290 315 321 312
231 228 222 220 224 227 236 240 242 244 247 256 261 253 248 259 248 258 264 267 276 283 287 292 286 303 295 288 301 310 316 310
231 237 237 237 240 236 237 232 246 246 278 276 264 259 252 252 251 263 266 271 277 288 287 300 283 281 306 301 311 309 315 315
215 215 227 236 244 251 250 228 246 270 284 272 254 251 246 244 258 271 276 281 285 302 304 294 280 296 310 313 313 312 315 310
208 214 213 218 233 246 251 240 265 265 282 268 249 238 237 248 260 279 273 285 282 281 289 282 291 304 303 310 311 310 310 306
222 212 210 214 224 236 242 245 262 277 267 259 245 243 247 256 260 274 284 288 286 276 292 290 304 305 305 310 309 308 305 302
272 263 244 229 223 226 232 238 252 270 277 270 264 261 244 262 264 273 291 296 264 309 293 299 305 302 304 306 307 304 303 301
279 251 249 235 226 230 234 240 250 263 274 271 273 270 250 268 268 251 305 272 285 286 300 306 306 307 307 308 305 302 301 301
268 254 248 246 233 245 241 248 255 262 265 276 277 273 265 266 299 253 301 295 289 320 296 311 309 310 310 306 303 301 302 302
281 258 251 251 252 248 251 254 259 266 275 281 276 278 269 245 285 311 288 277 309 305 303 307 313 312 307 304 304 304 302 301
269 268 251 251 253 250 254 259 271 278 271 271 271 281 249 297 298 299 279 306 312 304 306 311 309 306 307 308 305 302 301 302
255 256 249 246 254 251 256 261 264 265 265 269 270 279 280 294 301 283 302 307 306 305 309 309 308 312 309 306 304 304 304 305
254 254 252 250 252 252 250 251 257 261 264 270 268 274 288 295 290 304 296 308 306 306 308 309 313 312 308 306 304 304 303 304